1521896400.8,292,11.88,72194.0,2.87,-31.11,-30.55,0,*78
1521896402.07,293,11.88,72192.8,2.89,-31.11,-30.55,0,*77
1521896403.34,294,11.88,72188.8,2.89,-31.23,-30.55,0,*71
1521896404.56,295,11.88,72192.5,2.91,-31.05,-30.51,0,*79
1521896405.83,296,11.88,72188.8,2.89,-31.57,-30.89,0,*71
1521896407.08,297,11.88,72190.0,2.89,-31.61,-31.01,0,*74
1521896408.34,298,11.88,72188.5,2.89,-31.23,-30.67,0,*7C
1521896409.58,299,11.88,72188.8,2.89,-31.57,-31.01,0,*7F
1521896410.84,300,11.88,72192.5,2.89,-31.57,-30.83,0,*75
1521896412.08,301,11.88,72194.3,2.89,-31.73,-31.01,0,*79
1521896413.36,302,11.88,72194.8,2.89,-31.73,-31.11,0,*7B
1521896414.58,303,11.88,72190.8,2.91,-31.39,-30.67,0,*7D
1521896415.83,304,11.88,72188.5,2.91,-31.39,-30.61,0,*7C
1521896417.04,305,11.88,72190.8,2.91,-31.57,-31.01,0,*72
1521896418.23,306,11.88,72190.5,2.91,-31.67,-31.05,0,*76
1521896419.48,307,11.88,72194.8,2.89,-31.79,-31.23,0,*75
1521896420.76,308,11.88,72190.8,2.89,-31.61,-30.89,0,*72
1521896422.01,309,11.88,72190.8,2.89,-31.29,-30.73,0,*7A
1521896423.26,310,11.88,72190.3,2.89,-31.73,-31.05,0,*7D
1521896424.48,311,11.88,72188.8,2.87,-31.79,-31.23,0,*7C
1521896425.7,312,11.88,72192.0,2.87,-31.79,-31.11,0,*7E
1521896426.95,313,11.88,72192.8,2.89,-31.79,-31.23,0,*70
1521896428.19,314,11.88,72192.5,2.91,-31.51,-30.95,0,*78
1521896429.41,315,11.88,72192.5,2.91,-30.95,-30.27,0,*79
1521896430.65,316,11.88,72194.0,2.89,-31.29,-30.55,0,*70
1521896431.87,317,11.94,72194.3,2.91,-31.05,-30.51,0,*72
1521896433.14,318,11.88,72192.0,2.89,-31.11,-30.51,0,*71
1521896434.33,319,11.94,72194.0,2.91,-31.01,-30.33,0,*7C
1521896435.58,320,11.94,72196.0,2.91,-31.23,-30.51,0,*72
1521896436.77,321,11.94,72192.8,2.91,-31.05,-30.45,0,*72
1521896437.96,322,11.88,72188.8,2.91,-30.83,-30.27,0,*7A
1521896439.18,323,11.88,72190.8,2.91,-31.85,-31.33,0,*78
1521896440.37,324,11.88,72188.5,2.91,-31.67,-31.01,0,*72
1521896441.61,325,11.88,72186.8,2.91,-31.23,-30.51,0,*77
1521896442.86,326,11.88,72188.3,2.91,-31.23,-30.51,0,*74
1521896444.08,327,11.88,72192.5,2.91,-31.73,-31.17,0,*73
1521896445.33,328,11.88,72188.0,2.91,-31.39,-30.77,0,*75
1521896446.58,329,11.94,72194.8,2.91,-31.57,-30.95,0,*70
1521896447.79,330,11.88,72194.0,2.91,-31.57,-31.01,0,*74
1521896449.05,331,11.88,72192.5,2.89,-32.07,-31.45,0,*7A
1521896450.3,332,11.94,72194.8,2.91,-31.51,-30.77,0,*70
1521896451.52,333,11.88,72194.0,2.91,-31.73,-31.01,0,*71
1521896452.79,334,11.88,72192.5,2.89,-31.73,-31.11,0,*7E
1521896454.04,335,11.88,72192.8,2.89,-32.07,-31.45,0,*7E
1521896455.27,336,11.88,72192.8,2.89,-32.13,-31.45,0,*78
1521896456.52,337,11.94,72194.8,2.89,-31.29,-30.61,0,*74
1521896457.75,338,11.88,72188.8,2.89,-31.29,-30.67,0,*7D
1521896458.97,339,11.88,72188.8,2.89,-31.45,-31.01,0,*77
1521896460.22,340,11.88,72188.5,2.89,-31.95,-31.29,0,*7E
1521896461.44,341,11.94,72192.0,2.87,-31.91,-31.29,0,*75
1521896462.68,342,11.94,72194.3,2.87,-31.95,-31.39,0,*73
1521896463.9,343,11.88,72192.5,2.87,-31.79,-31.11,0,*7A
1521896465.14,344,11.94,72194.3,2.87,-32.19,-31.57,0,*7A
1521896466.39,345,11.88,72188.8,2.85,-31.95,-31.45,0,*7D
1521896467.62,346,11.94,72194.8,2.87,-31.57,-30.83,0,*79
1521896468.82,347,11.88,72190.3,2.87,-31.45,-30.83,0,*7B
1521896470.1,348,11.88,72190.8,2.85,-31.95,-31.51,0,*75
1521896471.34,349,11.94,72194.8,2.87,-32.07,-31.39,0,*70
1521896472.59,350,11.94,72192.8,2.85,-31.79,-31.11,0,*7A
1521896473.86,351,11.94,72194.8,2.85,-31.85,-31.11,0,*78
1521896475.11,352,11.94,72194.5,2.85,-31.79,-31.11,0,*78
1521896476.36,353,11.94,72194.0,2.85,-31.85,-31.29,0,*71
1521896477.58,354,11.94,72192.3,2.85,-31.79,-31.17,0,*78
1521896478.8,355,11.94,72192.8,2.85,-32.23,-31.45,0,*72
1521896480.05,356,11.94,72194.0,2.85,-31.85,-31.29,0,*74
1521896481.28,357,11.94,72192.3,2.83,-31.95,-31.45,0,*78
1521896482.54,358,11.94,72192.0,2.81,-31.23,-30.67,0,*79
1521896483.75,359,11.94,72194.8,2.85,-31.67,-31.05,0,*79
1521896485.01,360,11.94,72194.3,2.81,-32.29,-31.57,0,*79
1521896486.23,361,11.94,72192.5,2.81,-31.67,-31.01,0,*72
1521896487.46,362,11.94,72194.5,2.83,-31.45,-30.89,0,*72
1521896488.75,363,11.94,72192.5,2.81,-31.23,-30.77,0,*70
1521896489.98,364,11.88,72188.0,2.83,-31.45,-30.89,0,*74
1521896491.22,365,11.94,72194.8,2.85,-31.61,-31.05,0,*70
1521896492.44,366,11.94,72192.3,2.83,-31.67,-31.11,0,*76
1521896493.66,367,11.88,72190.3,2.83,-31.29,-30.61,0,*7B
1521896494.88,368,11.94,72190.8,2.83,-31.17,-30.55,0,*7E
1521896496.12,369,11.88,72190.0,2.85,-31.05,-30.39,0,*70
1521896497.37,370,11.94,72194.3,2.85,-31.17,-30.61,0,*76
1521896498.62,371,11.94,72194.8,2.85,-31.29,-30.61,0,*7A
1521896499.86,372,11.94,72194.0,2.85,-30.89,-30.23,0,*74
1521896501.1,373,11.94,72192.5,2.85,-30.77,-30.23,0,*74
1521896502.3,374,11.94,72194.5,2.87,-30.83,-30.23,0,*7A
1521896503.51,375,11.94,72194.0,2.85,-31.05,-30.45,0,*76
1521896504.76,376,11.94,72190.0,2.87,-31.11,-30.55,0,*73
1521896506.01,377,11.94,72190.8,2.85,-31.85,-31.17,0,*7A
1521896507.25,378,11.94,72192.5,2.85,-31.95,-31.29,0,*79
1521896508.48,379,11.94,72194.3,2.87,-31.79,-31.23,0,*72
1521896509.73,380,11.94,72192.0,2.85,-31.85,-31.17,0,*72
1521896510.97,381,11.94,72190.3,2.85,-31.45,-30.95,0,*74
1521896512.2,382,11.94,72194.8,2.83,-31.29,-30.61,0,*70
1521896513.45,383,11.94,72194.8,2.85,-31.29,-30.61,0,*77
1521896514.72,384,11.94,72196.3,2.85,-31.61,-30.95,0,*77
1521896515.96,385,11.94,72194.8,2.85,-31.79,-31.11,0,*72
1521896517.22,386,11.94,72194.3,2.85,-32.69,-31.95,0,*7F
1521896518.49,387,11.94,72192.5,2.85,-32.19,-31.51,0,*71
1521896519.71,388,11.94,72192.0,2.85,-32.01,-31.29,0,*78
1521896520.9,389,11.94,72192.3,2.83,-31.67,-31.05,0,*72
1521896522.12,390,11.94,72190.8,2.83,-31.61,-31.05,0,*7C
1521896523.37,391,11.94,72192.0,2.85,-31.79,-31.11,0,*77
1521896524.58,392,11.94,72194.3,2.83,-31.67,-31.11,0,*7D
1521896525.8,393,11.94,72194.8,2.83,-31.61,-31.05,0,*7F
1521896527.0,394,11.94,72192.0,2.83,-31.79,-31.17,0,*72
1521896528.22,395,11.94,72194.0,2.83,-31.67,-31.11,0,*7A
1521896529.44,396,11.94,72192.5,2.83,-31.61,-31.05,0,*7A
1521896530.71,397,11.94,72194.3,2.81,-31.57,-30.95,0,*74
1521896531.93,398,11.94,72192.3,2.83,-31.61,-31.05,0,*74
1521896533.2,399,11.94,72194.0,2.81,-31.91,-31.39,0,*77
1521896534.43,400,11.94,72196.5,2.83,-31.45,-30.77,0,*70
1521896535.71,401,11.94,72192.8,2.81,-31.57,-30.95,0,*7C
1521896536.93,402,11.94,72192.3,2.83,-31.33,-30.77,0,*73
1521896538.16,403,11.94,72194.0,2.83,-31.33,-30.77,0,*72
1521896539.4,404,11.94,72194.3,2.83,-31.51,-30.95,0,*7D
1521896540.65,405,11.94,72192.8,2.81,-31.85,-31.17,0,*7C
1521896541.87,406,11.94,72192.5,2.83,-31.79,-31.11,0,*78
1521896543.13,407,11.94,72192.8,2.81,-32.01,-31.51,0,*73
1521896544.38,408,11.94,72194.0,2.81,-31.73,-31.17,0,*78
1521896545.62,409,11.94,72196.3,2.83,-31.61,-30.95,0,*73
1521896546.88,410,11.94,72196.5,2.81,-31.33,-30.77,0,*72
1521896548.12,411,11.94,72192.5,2.81,-31.67,-30.95,0,*7E
1521896549.34,412,11.94,72190.3,2.83,-31.61,-31.05,0,*71
1521896550.61,413,11.94,72194.8,2.81,-31.57,-30.95,0,*7F
1521896551.83,414,11.94,72192.5,2.83,-31.61,-31.05,0,*77
1521896553.09,415,11.94,72192.0,2.81,-31.39,-30.67,0,*7C
1521896554.28,416,11.94,72194.3,2.83,-31.05,-30.45,0,*72
1521896555.56,417,11.94,72192.5,2.81,-31.23,-30.73,0,*70
1521896556.78,418,11.94,72194.0,2.83,-31.33,-30.73,0,*7C
1521896558.01,419,11.94,72192.5,2.83,-31.33,-30.77,0,*79
1521896559.26,420,11.94,72198.3,2.85,-31.17,-30.73,0,*77
1521896560.48,421,11.94,72194.5,2.83,-31.17,-30.61,0,*73
1521896561.71,422,11.94,72194.8,2.83,-31.33,-30.77,0,*71
1521896562.94,423,11.94,72192.0,2.83,-31.29,-30.77,0,*7B
1521896564.16,424,11.94,72192.0,2.83,-31.29,-30.61,0,*7B
1521896565.41,425,11.94,72196.3,2.85,-30.95,-30.45,0,*7C
1521896566.65,426,11.94,72198.0,2.85,-30.95,-30.45,0,*7F
1521896567.87,427,11.94,72192.0,2.85,-31.05,-30.45,0,*76
1521896569.11,428,11.94,72194.5,2.85,-30.89,-30.27,0,*78
1521896570.33,429,11.94,72192.3,2.87,-30.83,-30.39,0,*7E
1521896571.54,430,11.94,72194.3,2.87,-31.01,-30.51,0,*73
1521896572.76,431,11.94,72194.0,2.87,-30.83,-30.39,0,*77
1521896574.01,432,11.94,72192.0,2.85,-31.29,-30.77,0,*7D
1521896575.27,433,11.94,72192.3,2.85,-31.45,-30.73,0,*72
1521896576.52,434,11.94,72192.8,2.89,-31.23,-30.67,0,*7C
1521896577.73,435,11.94,72192.5,2.87,-31.05,-30.55,0,*76
1521896578.96,436,11.94,72194.5,2.87,-30.89,-30.33,0,*70
1521896580.2,437,11.94,72194.0,2.87,-30.89,-30.39,0,*7B
1521896581.44,438,11.94,72196.8,2.89,-31.05,-30.51,0,*71
1521896582.68,439,11.94,72192.8,2.89,-31.61,-31.01,0,*76
1521896583.92,440,11.94,72194.5,2.89,-31.05,-30.51,0,*7E
1521896585.16,441,11.94,72196.3,2.89,-31.01,-30.39,0,*75
1521896586.44,442,11.94,72192.8,2.89,-31.23,-30.73,0,*78
1521896587.68,443,11.94,72196.0,2.89,-31.05,-30.55,0,*79
1521896588.93,444,11.94,72198.0,2.91,-31.23,-30.61,0,*74
1521896590.18,445,11.94,72194.3,2.91,-31.23,-30.61,0,*75
1521896591.43,446,11.94,72196.8,2.89,-31.61,-31.05,0,*7A
1521896592.65,447,11.94,72194.3,2.89,-31.45,-31.01,0,*79
1521896593.87,448,11.94,72194.8,2.91,-31.01,-30.51,0,*7B
1521896595.13,449,11.94,72194.5,2.89,-30.89,-30.39,0,*7C
1521896596.41,450,11.94,72198.3,2.89,-31.11,-30.55,0,*7E
1521896597.68,451,11.94,72194.8,2.89,-31.57,-30.89,0,*7C
1521896598.93,452,11.94,72198.0,2.89,-31.39,-30.83,0,*7D
1521896600.13,453,11.94,72192.8,2.91,-31.33,-30.67,0,*75
1521896601.38,454,11.94,72196.8,2.89,-31.29,-30.73,0,*75
1521896602.66,455,11.94,72192.0,2.89,-31.39,-30.73,0,*75
1521896603.93,456,11.94,72194.3,2.89,-31.61,-31.11,0,*7E
1521896605.19,457,11.94,72198.3,2.89,-31.57,-30.83,0,*70
1521896606.44,458,11.94,72196.0,2.89,-31.39,-30.83,0,*77
1521896607.7,459,11.94,72192.5,2.89,-31.51,-30.95,0,*7F
1521896608.98,460,11.94,72196.5,2.89,-31.61,-30.89,0,*7B
1521896610.24,461,11.94,72192.8,2.89,-31.57,-30.83,0,*75
1521896611.46,462,11.94,72196.8,2.89,-31.29,-30.67,0,*75
1521896612.69,463,11.94,72192.8,2.89,-31.79,-31.29,0,*7A
1521896613.96,464,11.94,72194.3,2.89,-32.19,-31.61,0,*74
1521896615.2,465,11.94,72198.3,2.85,-31.45,-30.95,0,*79
1521896616.41,466,11.94,72192.8,2.87,-31.45,-30.83,0,*7F
1521896617.62,467,11.94,72194.8,2.87,-31.01,-30.51,0,*71
1521896618.86,468,11.94,72194.0,2.87,-31.11,-30.55,0,*7B
1521896620.09,469,11.94,72194.8,2.87,-31.29,-30.73,0,*75
1521896621.31,470,11.94,72192.8,2.87,-31.57,-31.05,0,*74
1521896622.53,471,11.94,72196.0,2.87,-31.91,-31.29,0,*71
1521896623.75,472,11.94,72194.0,2.87,-31.79,-31.11,0,*7F
1521896624.99,473,11.94,72194.3,2.87,-31.91,-31.11,0,*78
1521896626.24,474,11.94,72196.5,2.89,-31.45,-30.89,0,*78
1521896627.47,475,11.94,72192.0,2.87,-31.39,-30.83,0,*76
1521896628.71,476,11.94,72192.0,2.87,-31.51,-30.89,0,*71
1521896629.91,477,11.94,72194.5,2.87,-31.79,-31.29,0,*71
1521896631.16,478,11.94,72192.5,2.85,-31.85,-31.29,0,*7F
1521896632.41,479,11.94,72194.3,2.85,-31.17,-30.61,0,*78
1521896633.62,480,11.94,72192.8,2.87,-31.01,-30.39,0,*76
1521896634.81,481,11.94,72194.8,2.87,-31.01,-30.33,0,*7D
1521896636.05,482,11.94,72198.8,2.87,-30.89,-30.51,0,*7B
1521896637.26,483,11.94,72196.3,2.87,-31.01,-30.51,0,*7B
1521896638.51,484,11.94,72198.8,2.87,-31.57,-30.89,0,*7A
1521896639.76,485,11.94,72198.0,2.89,-31.73,-31.05,0,*76
1521896640.98,486,11.94,72194.0,2.91,-31.39,-30.67,0,*77
1521896642.23,487,11.94,72194.8,2.89,-31.29,-30.73,0,*7B
1521896643.49,488,11.94,72194.5,2.89,-31.11,-30.67,0,*7A
1521896644.76,489,11.94,72196.0,2.89,-31.23,-30.55,0,*7B
1521896646.03,490,11.94,72194.8,2.89,-31.23,-30.55,0,*73
1521896647.31,491,11.94,72198.0,2.89,-31.23,-30.51,0,*76
1521896648.58,492,11.94,72196.5,2.89,-31.23,-30.55,0,*71
1521896649.85,493,11.94,72192.5,2.89,-31.23,-30.51,0,*74
1521896651.1,494,11.94,72196.8,2.89,-30.89,-30.33,0,*76
1521896652.31,495,11.94,72196.8,2.87,-31.01,-30.39,0,*72
1521896653.55,496,11.94,72198.0,2.91,-31.51,-30.95,0,*75
1521896654.77,497,11.94,72192.5,2.91,-31.17,-30.61,0,*7D
1521896655.99,498,11.94,72192.5,2.91,-30.95,-30.45,0,*7F
1521896657.21,499,11.94,72194.8,2.91,-31.51,-31.01,0,*76
1521896658.46,500,11.94,72198.3,2.91,-31.23,-30.61,0,*75
1521896659.7,501,11.94,72194.0,2.93,-31.45,-30.95,0,*7D
1521896660.92,502,11.94,72198.0,2.91,-31.17,-30.51,0,*73
1521896662.1,503,11.94,72196.3,2.91,-31.05,-30.45,0,*74
1521896663.32,504,11.94,72196.5,2.91,-31.17,-30.51,0,*75
1521896664.51,505,11.94,72194.3,2.91,-31.01,-30.45,0,*76
1521896665.73,506,11.94,72196.0,2.91,-30.95,-30.45,0,*79
1521896666.93,507,11.94,72194.8,2.91,-30.83,-30.33,0,*7E
1521896668.12,508,11.94,72198.5,2.91,-31.05,-30.45,0,*7F
1521896669.31,509,11.94,72194.0,2.91,-31.01,-30.45,0,*7A
1521896670.51,510,11.94,72192.3,2.93,-31.01,-30.45,0,*70
1521896671.78,511,11.94,72196.3,2.93,-30.95,-30.39,0,*76
1521896673.01,512,11.94,72192.8,2.95,-30.95,-30.39,0,*73
1521896674.23,513,11.94,72198.5,2.95,-31.33,-30.73,0,*71
1521896675.45,514,11.94,72192.0,2.95,-30.95,-30.45,0,*7E
1521896676.67,515,11.94,72198.3,2.95,-31.17,-30.61,0,*72
1521896677.9,516,11.94,72198.3,2.95,-30.95,-30.39,0,*77
1521896679.12,517,11.94,72192.0,2.95,-31.29,-30.61,0,*7D
1521896680.34,518,11.94,72196.5,2.95,-31.17,-30.61,0,*7F
1521896681.59,519,12.0,72200.0,2.95,-31.51,-30.89,0,*7A
1521896682.81,520,11.94,72194.5,2.95,-31.29,-30.73,0,*7A
1521896684.02,521,11.94,72196.3,2.95,-31.17,-30.55,0,*72
1521896685.27,522,11.94,72192.3,2.97,-31.39,-30.83,0,*74
1521896686.51,523,11.94,72194.0,2.97,-31.05,-30.51,0,*75
1521896687.72,524,11.94,72192.0,2.95,-31.61,-31.01,0,*76
1521896688.96,525,11.94,72194.0,2.95,-31.61,-30.95,0,*7B
1521896690.17,526,11.94,72192.5,2.95,-31.67,-31.11,0,*73
1521896691.38,527,11.94,72196.5,2.95,-31.67,-30.95,0,*7F
1521896692.63,528,11.94,72196.8,2.93,-31.29,-30.61,0,*77
1521896693.85,529,11.94,72198.8,2.95,-31.29,-30.61,0,*70
1521896695.06,530,11.94,72198.0,2.95,-30.95,-30.27,0,*7C
1521896696.3,531,11.94,72192.8,2.93,-31.17,-30.55,0,*75
1521896697.54,532,11.94,72196.0,2.95,-31.61,-30.89,0,*70
1521896698.76,533,11.94,72196.8,2.95,-31.29,-30.73,0,*78
1521896700.01,534,12.0,72196.8,2.93,-31.45,-30.89,0,*76
1521896701.22,535,11.94,72196.0,2.95,-31.17,-30.55,0,*77
1521896702.44,536,11.94,72194.0,2.93,-31.17,-30.45,0,*73
1521896703.68,537,11.94,72198.0,2.93,-31.33,-30.61,0,*72
1521896704.9,538,11.94,72194.5,2.95,-31.33,-30.61,0,*7B
1521896706.12,539,11.94,72196.8,2.95,-31.33,-30.61,0,*7A
1521896707.34,540,11.94,72194.0,2.95,-31.17,-30.61,0,*72
1521896708.56,541,11.94,72196.3,2.95,-31.33,-30.61,0,*75
1521896709.77,542,11.94,72194.0,2.95,-31.17,-30.55,0,*77
1521896710.99,543,11.94,72192.3,2.95,-31.45,-30.89,0,*70
1521896712.23,544,11.94,72196.5,2.93,-31.33,-30.73,0,*75
1521896713.46,545,11.94,72194.5,2.95,-31.45,-30.73,0,*73
1521896714.67,546,11.94,72196.5,2.95,-31.17,-30.55,0,*73
1521896715.89,547,11.94,72192.5,2.95,-31.45,-30.73,0,*71
1521896717.14,548,12.0,72196.5,2.97,-31.29,-30.55,0,*72
1521896718.35,549,11.94,72194.3,2.95,-31.67,-31.11,0,*7A
1521896719.59,550,11.94,72196.0,2.95,-31.61,-30.95,0,*79
1521896720.83,551,11.94,72194.8,2.95,-31.51,-30.77,0,*77
1521896722.11,552,11.94,72194.5,2.97,-31.39,-30.73,0,*7C
1521896723.32,553,11.94,72194.0,2.93,-31.79,-31.17,0,*7E
1521896724.55,554,12.0,72198.0,2.95,-31.45,-30.89,0,*76
1521896725.82,555,11.94,72192.8,2.93,-31.51,-30.89,0,*74
1521896727.06,556,11.94,72194.5,2.93,-31.33,-30.73,0,*76
1521896728.3,557,11.94,72192.5,2.93,-31.33,-30.73,0,*77
1521896729.56,558,11.94,72194.0,2.93,-31.51,-30.95,0,*74
1521896730.8,559,11.94,72194.5,2.93,-31.67,-31.11,0,*7D
1521896731.98,560,12.0,72196.8,2.95,-31.67,-31.01,0,*70
1521896733.18,561,12.0,72196.5,2.95,-31.79,-31.17,0,*79
1521896734.39,562,12.0,72198.3,2.93,-31.67,-31.17,0,*73
1521896735.6,563,11.94,72196.5,2.91,-31.91,-31.33,0,*7F
1521896736.82,564,12.0,72198.3,2.93,-31.79,-31.33,0,*7C
1521896738.07,565,11.94,72192.8,2.91,-31.85,-31.23,0,*7D
1521896739.31,566,11.94,72192.0,2.91,-31.85,-31.23,0,*7E
1521896740.53,567,12.0,72196.3,2.91,-31.85,-31.33,0,*7E
1521896741.75,568,12.0,72194.5,2.91,-31.91,-31.33,0,*74
1521896742.97,569,11.94,72194.0,2.91,-31.91,-31.33,0,*75
1521896744.24,570,12.0,72196.0,2.89,-31.91,-31.39,0,*7E
1521896745.5,571,11.94,72194.0,2.89,-32.07,-31.57,0,*7B
1521896746.73,572,12.0,72198.8,2.89,-31.79,-31.29,0,*7B
1521896747.98,573,11.94,72194.8,2.89,-31.95,-31.45,0,*72
1521896749.22,574,12.0,72198.5,2.89,-32.13,-31.57,0,*7B
1521896750.46,575,12.0,72194.8,2.89,-31.61,-31.01,0,*7F
1521896751.68,576,11.94,72194.8,2.87,-31.61,-31.05,0,*76
1521896752.93,577,12.0,72192.8,2.89,-31.91,-31.29,0,*78
1521896754.17,578,11.94,72190.5,2.89,-32.13,-31.57,0,*77
1521896755.44,579,11.94,72192.8,2.89,-31.95,-31.39,0,*73
1521896756.66,580,12.0,72194.3,2.87,-31.79,-31.39,0,*79
1521896757.91,581,12.0,72198.8,2.85,-31.33,-30.77,0,*7F
1521896759.16,582,12.0,72198.8,2.85,-31.17,-30.61,0,*7D
1521896760.41,583,12.0,72198.0,2.85,-31.85,-31.17,0,*77
1521896761.66,584,11.94,72192.5,2.85,-31.85,-31.29,0,*7D
1521896762.88,585,12.0,72194.8,2.87,-31.73,-31.05,0,*79
1521896764.1,586,11.94,72190.8,2.87,-31.73,-31.01,0,*7E
1521896765.32,587,11.94,72192.8,2.87,-31.79,-31.11,0,*74
1521896766.57,588,11.94,72192.3,2.85,-31.85,-31.29,0,*71
1521896767.79,589,12.0,72196.8,2.85,-31.79,-31.17,0,*7E
1521896769.04,590,12.0,72192.5,2.85,-31.85,-31.29,0,*78
1521896770.26,591,12.0,72196.3,2.85,-31.79,-31.17,0,*77
1521896771.46,592,12.0,72194.8,2.83,-32.01,-31.45,0,*79
1521896772.69,593,12.0,72194.5,2.83,-32.01,-31.51,0,*7D
1521896773.91,594,12.0,72194.5,2.83,-31.95,-31.29,0,*7B
1521896775.15,595,12.0,72198.8,2.81,-32.13,-31.57,0,*7C
1521896776.38,596,12.0,72196.5,2.83,-31.95,-31.45,0,*73
1521896777.6,597,11.94,72194.5,2.83,-31.85,-31.29,0,*79
1521896778.85,598,12.0,72196.5,2.81,-32.39,-31.85,0,*76
1521896780.11,599,12.0,72194.5,2.81,-32.29,-31.73,0,*7F
1521896781.36,600,11.94,72194.3,2.81,-32.01,-31.39,0,*78
1521896782.61,601,12.0,72198.8,2.81,-32.39,-31.85,0,*75
1521896783.85,602,12.0,72194.8,2.81,-32.19,-31.67,0,*78
1521896785.06,603,11.94,72192.0,2.79,-32.23,-31.73,0,*72
1521896786.28,604,12.0,72194.3,2.79,-32.19,-31.67,0,*79
1521896787.5,605,12.0,72198.3,2.79,-32.23,-31.61,0,*77
1521896788.74,606,11.94,72192.3,2.75,-31.91,-31.39,0,*7F
1521896789.99,607,12.0,72194.8,2.81,-31.67,-31.11,0,*76
1521896791.19,608,12.0,72196.8,2.75,-31.79,-31.17,0,*7B
1521896792.41,609,12.0,72194.8,2.79,-31.73,-31.17,0,*7C
1521896793.66,610,12.0,72196.3,2.79,-31.73,-31.11,0,*72
1521896794.86,611,12.0,72194.8,2.75,-31.79,-31.17,0,*73
1521896796.06,612,12.0,72196.0,2.75,-31.79,-31.29,0,*7D
1521896797.29,613,12.0,72196.3,2.75,-31.73,-31.17,0,*7B
1521896798.51,614,12.0,72194.0,2.75,-32.13,-31.61,0,*78
1521896799.7,615,12.0,72196.5,2.75,-32.35,-31.79,0,*74
1521896800.91,616,12.0,72194.0,2.71,-32.35,-31.85,0,*70
1521896802.15,617,12.0,72194.5,2.71,-32.19,-31.61,0,*75
1521896803.34,618,12.0,72192.8,2.71,-32.39,-32.01,0,*7D
1521896804.55,619,12.0,72196.3,2.71,-32.29,-31.67,0,*7E
1521896805.77,620,12.0,72192.5,2.71,-31.85,-31.33,0,*70
1521896807.0,621,12.0,72192.5,2.71,-31.95,-31.45,0,*71
1521896808.21,622,12.0,72198.0,2.71,-32.19,-31.79,0,*7A
1521896809.46,623,12.0,72196.3,2.71,-31.85,-31.23,0,*72
1521896810.67,624,12.0,72196.0,2.71,-32.29,-31.67,0,*70
1521896811.92,625,12.0,72196.0,2.73,-31.67,-31.11,0,*7B
1521896813.15,626,12.0,72196.3,2.71,-31.45,-30.89,0,*7A
1521896814.39,627,12.0,72198.5,2.73,-31.67,-31.11,0,*79
1521896815.64,628,12.0,72196.8,2.71,-32.19,-31.61,0,*79
1521896816.86,629,12.0,72198.0,2.71,-31.61,-31.05,0,*76
1521896818.11,630,12.0,72196.3,2.69,-32.01,-31.51,0,*73
1521896819.37,631,12.0,72198.0,2.69,-31.51,-30.95,0,*7D
1521896820.64,632,12.0,72194.8,2.69,-31.39,-30.95,0,*70
1521896821.91,633,12.0,72194.8,2.69,-31.91,-31.51,0,*7A
1521896823.17,634,12.0,72196.8,2.69,-31.51,-30.95,0,*78
1521896824.39,635,12.0,72192.5,2.69,-31.01,-30.33,0,*70
1521896825.64,636,12.0,72196.0,2.69,-31.01,-30.61,0,*74
1521896826.83,637,12.0,72192.0,2.71,-31.05,-30.45,0,*7E
1521896828.07,638,12.0,72196.0,2.71,-30.95,-30.55,0,*78
1521896829.32,639,12.0,72196.3,2.73,-31.05,-30.61,0,*74
1521896830.6,640,12.0,72198.5,2.73,-31.11,-30.73,0,*7C
1521896831.85,641,12.0,72200.0,2.73,-31.79,-31.11,0,*76
1521896833.11,642,12.0,72198.8,2.73,-31.29,-30.77,0,*71
1521896834.38,643,12.0,72194.5,2.73,-31.51,-30.95,0,*73
1521896835.58,644,12.0,72198.0,2.71,-31.79,-31.29,0,*7A
1521896836.79,645,12.0,72196.0,2.71,-32.19,-31.79,0,*7B
1521896838.04,646,12.0,72192.8,2.71,-31.95,-31.51,0,*75
1521896839.29,647,12.0,72198.5,2.73,-31.79,-31.11,0,*70
1521896840.51,648,12.0,72194.8,2.71,-31.29,-30.73,0,*7D
1521896841.73,649,12.0,72196.5,2.71,-31.67,-31.11,0,*73
1521896842.99,650,12.0,72198.5,2.73,-31.33,-30.77,0,*79
1521896844.27,651,12.0,72194.5,2.73,-31.61,-31.11,0,*7E
1521896845.52,652,12.0,72196.0,2.73,-31.33,-30.73,0,*7F
1521896846.77,653,12.0,72196.0,2.73,-31.85,-31.45,0,*77
1521896848.02,654,12.0,72200.5,2.71,-31.85,-31.23,0,*72
1521896849.26,655,12.0,72200.0,2.73,-32.01,-31.45,0,*7E
1521896850.48,656,12.0,72194.8,2.71,-31.61,-31.05,0,*7E
1521896851.73,657,12.0,72198.8,2.73,-31.45,-30.95,0,*73
1521896852.98,658,12.0,72198.3,2.73,-31.95,-31.33,0,*7C
1521896854.22,659,12.0,72198.3,2.73,-32.29,-31.79,0,*77
1521896855.44,660,12.0,72194.8,2.71,-31.67,-31.23,0,*79
1521896856.71,661,12.0,72198.8,2.73,-31.51,-30.89,0,*7E
1521896857.97,662,12.0,72198.3,2.71,-31.23,-30.77,0,*7B
1521896859.22,663,12.0,72198.3,2.73,-31.33,-30.95,0,*75
1521896860.49,664,12.0,72198.5,2.73,-31.95,-31.51,0,*77
1521896861.71,665,12.0,72196.0,2.71,-32.19,-31.67,0,*76
1521896862.95,666,12.0,72198.3,2.73,-31.51,-31.05,0,*7C
1521896864.19,667,12.0,72196.5,2.71,-30.73,-30.05,0,*7F
1521896865.46,668,12.0,72194.0,2.73,-30.61,-29.89,0,*7D
1521896866.71,669,12.0,72198.3,2.73,-30.95,-30.45,0,*7F
1521896867.96,670,12.0,72196.8,2.79,-30.77,-30.17,0,*76
1521896869.19,671,12.0,72196.0,2.75,-30.83,-30.51,0,*72
1521896870.4,672,12.0,72198.5,2.79,-30.61,-29.95,0,*71
1521896871.61,673,12.0,72198.0,2.79,-30.51,-29.79,0,*71
1521896872.81,674,12.0,72198.3,2.79,-30.83,-30.45,0,*7E
1521896874.06,675,12.0,72200.5,2.81,-30.67,-30.01,0,*72
1521896875.27,676,12.0,72198.3,2.83,-30.45,-29.89,0,*7B
1521896876.52,677,12.0,72198.5,2.81,-30.77,-30.11,0,*70
1521896877.75,678,12.0,72196.5,2.81,-31.17,-30.67,0,*79
1521896879.0,679,12.0,72198.8,2.83,-31.11,-30.61,0,*7A
1521896880.25,680,12.0,72196.8,2.83,-31.11,-30.61,0,*7C
1521896881.48,681,12.0,72196.5,2.83,-31.17,-30.61,0,*7B
1521896882.7,682,12.0,72196.0,2.83,-31.33,-30.89,0,*78
1521896883.92,683,12.0,72198.0,2.85,-31.67,-31.17,0,*78
1521896885.14,684,12.0,72196.5,2.83,-31.61,-31.17,0,*7F
1521896886.36,685,12.0,72192.0,2.83,-30.95,-30.45,0,*72
1521896887.59,686,12.0,72198.0,2.83,-31.05,-30.77,0,*78
1521896888.84,687,12.0,72198.5,2.85,-31.33,-30.77,0,*7A
1521896890.06,688,12.0,72196.0,2.87,-31.05,-30.73,0,*76
1521896891.28,689,12.0,72198.3,2.85,-31.67,-31.17,0,*72
1521896892.53,690,12.0,72196.5,2.85,-31.45,-30.89,0,*7C
1521896893.79,691,12.0,72198.8,2.87,-31.11,-30.73,0,*7B
1521896894.99,692,12.0,72198.3,2.87,-31.29,-30.67,0,*76
1521896896.2,693,12.0,72198.0,2.87,-30.73,-30.33,0,*78
1521896897.46,694,12.0,72198.0,2.87,-31.11,-30.73,0,*7E
1521896898.7,695,12.0,72196.0,2.87,-31.61,-31.11,0,*7D
1521896899.95,696,12.0,72196.3,2.85,-31.95,-31.33,0,*77
1521896901.23,697,12.0,72196.3,2.89,-31.23,-30.73,0,*72
1521896902.47,698,12.0,72200.5,2.87,-30.73,-30.05,0,*76
1521896903.68,699,12.0,72198.0,2.87,-31.05,-30.55,0,*72
1521896904.96,700,12.0,72198.8,2.89,-31.23,-30.89,0,*78
1521896906.23,701,12.0,72196.3,2.89,-31.11,-30.55,0,*79
1521896907.49,702,12.0,72194.5,2.89,-31.95,-31.45,0,*76
1521896908.74,703,12.0,72194.5,2.89,-31.79,-31.23,0,*75
1521896909.99,704,12.0,72196.5,2.89,-31.39,-30.83,0,*7D
1521896911.24,705,12.0,72198.5,2.89,-31.29,-30.73,0,*72
1521896912.46,706,12.0,72198.0,2.89,-31.45,-31.05,0,*7B
1521896913.73,707,12.0,72196.5,2.89,-31.95,-31.39,0,*78
1521896915.0,708,12.0,72196.8,2.89,-31.95,-31.57,0,*7F
1521896916.22,709,12.0,72196.3,2.91,-31.73,-31.33,0,*7D
1521896917.47,710,12.0,72196.8,2.89,-31.29,-30.89,0,*73
1521896918.72,711,12.0,72196.0,2.93,-31.45,-30.89,0,*73
1521896920.0,712,12.0,72196.8,2.89,-31.61,-31.23,0,*7C
1521896921.27,713,12.0,72196.0,2.89,-31.57,-31.11,0,*79
1521896922.48,714,12.0,72196.0,2.91,-31.33,-30.95,0,*78
1521896923.72,715,12.0,72196.3,2.91,-31.39,-30.95,0,*73